{"data":{"norad_id":59655,"epoch":"2026-05-25T04:34:08.393952Z","epoch_age_seconds":55611,"freshness":"FRESH","line1":"1 59655U 24084B   26145.19037493  .00000682  00000+0  34316-4 0  9998","line2":"2 59655  42.9999 326.2490 0001269 273.2747  86.7959 15.27583284116119","mean_motion":15.27583284,"eccentricity":0.0001269,"inclination_deg":42.9999,"raan_deg":326.249,"arg_perigee_deg":273.2747,"mean_anomaly_deg":86.7959,"bstar":3.4316e-5,"rev_number":11611,"period_min":94.266546058905,"perigee_km":482.16857931214,"apogee_km":483.90994584758,"semimajor_km":6861.1762625799,"source":"CELESTRAK","updated_at":"2026-05-25T13:38:19.017444Z"}}